Location: Brachbach
(49.1847°N, 9.7240°E)
Time: 10:10:07
(UTC+00:00)

SAR-Lupe-1 - Pass Details

Date: 23 May 2024
Orbit: 479 x 482 km, 98.1° (Epoch: 04 May)

Event Time Altitude Azimuth Distance (km) Brightness Sun altitude
Rises 02:31:41 0° 11° (NNE) 2,553 8.8 -8.0°
Reaches altitude 10° 02:33:46 10° 9° (N) 1,668 7.7 -7.7°
Maximum altitude 02:37:19 67° 287° (WNW) 528 4.1 -7.3°
Drops below altitude 10° 02:40:51 10° 205° (SSW) 1,655 6.2 -6.9°
Enters shadow 02:41:25 - 204° (SSW) 1,896 6.5 -6.8°
